Regional Weather Roundup
Issued by NWS

Home | Current Version | Previous Version | Graphics & Text | Print | Product List | Glossary On
Versions: 1 2 3 4 5 6 7 8 9 10 11 12 13 14 15 16 17 18 19 20 21 22 23 24 25 26 27 28 29 30 31 32 33 34 35 36 37 38 39 40 41 42 43 44 45 46 47 48 49 50
000
ASUS43 KMKX 061821
RWRWI

WISCONSIN REGIONAL WEATHER ROUNDUP
NATIONAL WEATHER SERVICE MILWAUKEE/SULLIVAN WI
100 PM CDT FRI MAY 06 2016

NOTE: "FAIR" INDICATES FEW OR NO CLOUDS BELOW 12,000 FEET WITH NO
SIGNIFICANT WEATHER AND/OR OBSTRUCTIONS TO VISIBILITY.

WIZ001-002-006>008-014>016-023>028-061900-
NORTHWEST WISCONSIN

CITY           SKY/WX    TMP DP  RH WIND       PRES   REMARKS
SUPERIOR ARPT  SUNNY     92  48  22 W15G22    29.67F HX  88
6HR MIN TEMP:  61; 6HR MAX TEMP:  92;

ASHLAND        SUNNY     91  37  15 SW12G23   29.70F HX  87
6HR MIN TEMP:  64; 6HR MAX TEMP:  92;

HAYWARD        SUNNY     87  42  20 W10G22    29.75F HX  84
6HR MIN TEMP:  49; 6HR MAX TEMP:  87;

SIREN          SUNNY     85  46  25 SW10G18   29.76F HX  83
6HR MIN TEMP:  62; 6HR MAX TEMP:  85;

CUMBERLAND     SUNNY     84  41  21 SW17      29.79F HX  81
RICE LAKE      SUNNY     86  41  20 SW12G21   29.80F HX  83
6HR MIN TEMP:  50; 6HR MAX TEMP:  86;

CHETEK         SUNNY     85  47  26 SW10G18   29.79F HX  83
6HR MIN TEMP:  47; 6HR MAX TEMP:  86;

LADYSMITH      SUNNY     85  38  19 W13G20    29.80F HX  82
6HR MIN TEMP:  51; 6HR MAX TEMP:  85;

EAU CLAIRE     SUNNY     87  47  24 W16       29.79F HX  84
6HR MIN TEMP:  49; 6HR MAX TEMP:  87;

MENOMONIE      SUNNY     87  49  27 SW13      29.80F HX  84
NEW RICHMOND   SUNNY     83  49  31 SW12      29.80F HX  81
6HR MIN TEMP:  55; 6HR MAX TEMP:  83;

OSCEOLA        SUNNY     83  49  30 SW13      29.81F HX  82
6HR MIN TEMP:  57; 6HR MAX TEMP:  84;

$$

WIZ003>005-009-010-017-018-061900-
NORTH CENTRAL WISCONSIN

CITY           SKY/WX    TMP DP  RH WIND       PRES   REMARKS
MANITOWISH WTR SUNNY     85  40  20 SW14      29.77F HX  82
6HR MIN TEMP:  48; 6HR MAX TEMP:  85;

ARBOR VITAE    SUNNY     86  35  16 SW18G24   29.78F HX  82
6HR MIN TEMP:  52; 6HR MAX TEMP:  86;

WOODRUFF       SUNNY     86  35  16 SW18G24   29.78F HX  82
6HR MIN TEMP:  52; 6HR MAX TEMP:  86;

RHINELANDER    SUNNY     87  37  17 W15G26    29.79F HX  84
6HR MIN TEMP:  55; 6HR MAX TEMP:  87;

EAGLE RIVER    SUNNY     84  33  16 SW10G20   29.78F HX  81
LAND O LAKES   SUNNY     85  33  15 W8G18     29.77F HX  82
6HR MIN TEMP:  50; 6HR MAX TEMP:  86;

PHILLIPS       SUNNY     85  35  17 W7G23     29.77F HX  82
6HR MIN TEMP:  52; 6HR MAX TEMP:  84;

TOMAHAWK       SUNNY     84  36  17 W9G21     29.80F HX  81
6HR MIN TEMP:  50; 6HR MAX TEMP:  84;

MEDFORD        SUNNY     82  46  28 SW13G20   29.81F HX  80
6HR MIN TEMP:  52; 6HR MAX TEMP:  82;

MERRILL        SUNNY     85  39  20 NW13G23   29.81F HX  82
$$

WIZ029-030-035-036-043>047-061900-
CENTRAL WISCONSIN

CITY           SKY/WX    TMP DP  RH WIND       PRES   REMARKS
WAUSAU         SUNNY     84  44  24 W13       29.80F HX  82
6HR MIN TEMP:  53; 6HR MAX TEMP:  84;

MOSINEE        SUNNY     81  46  30 W9G17     29.84F HX  80
MARSHFIELD     SUNNY     86  43  22 W13G23    29.81F HX  83
6HR MIN TEMP:  52; 6HR MAX TEMP:  86;

STEVENS POINT  SUNNY     78  45  30 W9        29.83F
6HR MIN TEMP:  49; 6HR MAX TEMP:  78;

WAUPACA        SUNNY     81  42  25 SW7       29.83F
6HR MIN TEMP:  53; 6HR MAX TEMP:  81;

WAUTOMA        SUNNY     81  46  29 VRB5      29.84F HX  80
6HR MIN TEMP:  50; 6HR MAX TEMP:  81;

WISC RAPIDS    SUNNY     85  40  20 W8        29.84F HX  82
6HR MIN TEMP:  52; 6HR MAX TEMP:  85; 6HR PCP: TRACE;

CAMP DOUGLAS   SUNNY     82  50  32 W15G22    29.84F HX  81
                                      6HR PCP: TRACE;

$$

WIZ011>013-019>022-031-037>040-048>050-061900-
NORTHEAST WISCONSIN

CITY           SKY/WX    TMP DP  RH WIND       PRES   REMARKS
ANTIGO         SUNNY     81  47  30 SW3       29.82F HX  80
6HR MIN TEMP:  50; 6HR MAX TEMP:  81;

SHAWANO        SUNNY     81  44  27 SW7       29.80F HX  80
6HR MIN TEMP:  54; 6HR MAX TEMP:  80;

OCONTO         SUNNY     72  49  43 SE9       29.79F
6HR MIN TEMP:  52; 6HR MAX TEMP:  74;

STURGEON BAY   SUNNY     68  46  45 S13G18    29.84F
6HR MIN TEMP:  48; 6HR MAX TEMP:  70;

GREEN BAY      SUNNY     80  50  34 W10       29.81F HX  80
6HR MIN TEMP:  52; 6HR MAX TEMP:  80;

MANITOWOC      SUNNY     68  43  40 MISG      29.84F
6HR MIN TEMP:  47; 6HR MAX TEMP:  71;

APPLETON       MOSUNNY   79  43  27 W8        29.82F
CLINTONVILLE   SUNNY     79  43  27 SW8       29.81F
OSHKOSH        SUNNY     77  46  33 W8        29.83F
6HR MIN TEMP:  52; 6HR MAX TEMP:  78;

$$

WIZ032>034-041-042-053>061-061900-
SOUTHWEST WISCONSIN

CITY           SKY/WX    TMP DP  RH WIND       PRES   REMARKS
LA CROSSE      SUNNY     86  50  28 VRB6      29.83F HX  84
6HR MIN TEMP:  53; 6HR MAX TEMP:  86;

SPARTA         SUNNY     82  47  28 SW9       29.85F HX  80
6HR MIN TEMP:  45; 6HR MAX TEMP:  82;

VIROQUA        SUNNY     81  44  27 W13       29.89F HX  80
6HR MIN TEMP:  53; 6HR MAX TEMP:  82;

BOSCOBEL       SUNNY     82  48  30 SW7       29.88F HX  81
6HR MIN TEMP:  47; 6HR MAX TEMP:  82;

PRAIRIE DU CHI SUNNY     84  42  22 W12G17    29.87F HX  82
6HR MIN TEMP:  50; 6HR MAX TEMP:  84;

PLATTEVILLE    SUNNY     78  47  33 W10G17    29.92F
6HR MIN TEMP:  50; 6HR MAX TEMP:  78;

$$

WIZ056-057-062-063-064-067-068-061900-
SOUTH CENTRAL WISCONSIN

CITY           SKY/WX    TMP DP  RH WIND       PRES   REMARKS
REEDSBURG      SUNNY     78  51  38 SW7       29.87F
6HR MIN TEMP:  53; 6HR MAX TEMP:  78;

BARABOO/DELLS  SUNNY     79  42  27 SW10      29.87F
6HR MIN TEMP:  56; 6HR MAX TEMP:  79;

LONE ROCK      SUNNY     80  47  31 W12       29.88F
6HR MIN TEMP:  50; 6HR MAX TEMP:  80;

MINERAL POINT  SUNNY     77  46  33 SW9       29.91F
MADISON        MOSUNNY   75  45  34 SW7       29.87F
6HR MIN TEMP:  52; 6HR MAX TEMP:  76; 6HR PCP: TRACE;

MIDDLETON      SUNNY     79  46  31 W9        29.89F
6HR MIN TEMP:  56; 6HR MAX TEMP:  79;

WATERTOWN      SUNNY     78  50  38 SW9       29.86F
6HR MIN TEMP:  51; 6HR MAX TEMP:  78;

MONROE         SUNNY     75  45  33 W10G16    29.91F
JANESVILLE     MOSUNNY   79  46  31 W9        29.89F
$$

WIZ051-052-058>065-066-070>072-061900-
SOUTHEAST WISCONSIN

CITY           SKY/WX    TMP DP  RH WIND       PRES   REMARKS
MILWAUKEE      MOSUNNY   76  43  30 SW8       29.87F
6HR MIN TEMP:  52; 6HR MAX TEMP:  77;

WAUKESHA       SUNNY     75  45  33 W7        29.87F
MILWAUKEE/TIMM NOT AVBL
RACINE         SUNNY     70  44  39 SE9       29.89F
6HR MIN TEMP:  53; 6HR MAX TEMP:  77; 6HR PCP: TRACE;

BURLINGTON     SUNNY     77  44  31 W8        29.88F
6HR MIN TEMP:  52; 6HR MAX TEMP:  77;

KENOSHA        SUNNY     76  45  33 S10       29.89F
6HR MIN TEMP:  51; 6HR MAX TEMP:  76;

FOND DU LAC    SUNNY     80  46  30 W12       29.84F
6HR MIN TEMP:  53; 6HR MAX TEMP:  80;

SHEBOYGAN      SUNNY     77  48  35 S9        29.83F
6HR MIN TEMP:  48; 6HR MAX TEMP:  77;

WEST BEND      SUNNY     77  43  29 W6        29.85F
JUNEAU         SUNNY     76  49  38 SW5       29.87F
6HR MIN TEMP:  49; 6HR MAX TEMP:  76;

$$

LSZ147-162-061900-
LAKE SUPERIOR

STATION/POSITION TIME  TEMP    WIND        PRES    WAVE
                       AIR SEA DIR/SP/G            HT/PER
                 (UTC) (F)     (DEG/KT/KT) (MB)    (FT/S)
W MID LAKE BUOY  1750   47 37  190/  8/  8 1005.1F   0
DEVILS ISLAND    1800   75     230/ 18/ 20 1004.1F
SAXON HARBOR     1740   87     260/ 12/ 23 1005.4F
$$

LMZ867-665-643>646-061900-
LAKE MICHIGAN

STATION/POSITION TIME  TEMP    WIND        PRES    WAVE
                       AIR SEA DIR/SP/G            HT/PER
                 (UTC) (F)     (DEG/KT/KT) (MB)    (FT/S)
CHAMBERS ISLAND  1700   67     190/  9/ 15 1010.2F
N MID LAKE BUOY  1750   44 39  180/ 14/ 16 1010.4F   2/ 4
C1F1C2F2C3F3C4F4C5F5C6F6C7F7C8M1C9M2Ca!


USA.gov is the U.S. government's official web portal to all federal, state and local government web resources and services.